Change the Weather History Date:

Thursday, May 15, 2014

  Actual Average Record
Temperature  
Mean Temperature 58 °F -  
Max Temperature 69 °F 51 °F 69 °F (2014)
Min Temperature 48 °F 36 °F 25 °F (2013)
Degree Days  
Heating Degree Days 7    
Growing Degree Days 8 (Base 50)    
Moisture  
Dew Point 23 °F    
Average Humidity 25    
Maximum Humidity 35    
Minimum Humidity 17    
Precipitation  
Precipitation 0.00 in - - ()
Sea Level Pressure  
Sea Level Pressure 30.38 in    
Wind  
Wind Speed 4 mph (WNW)    
Max Wind Speed 10 mph    
Max Gust Speed 17 mph    
Visibility 10 miles    
Events      
Averages and records for this station are not official NWS values.
T = Trace of Precipitation, MM = Missing Value Source: NWS Daily Summary

Daily Weather History Graph

Daily Weather History Graph

Search for Another Location

Airport or City:

Trip Planner

Search our weather history database for the weather conditions in past years. The results will help you decide how hot, cold, wet, or windy it might be!

Date:

Astronomy

May. 15, 2014 Rise Set
Actual Time 5:21 AM AKDT 11:21 PM AKDT
Civil Twilight 3:57 AM AKDT 12:47 AM AKDT
Nautical Twilight Sun does not rise Sun does not rise
Astronomical Twilight Sun does not rise Sun does not rise
Moon No Moon Rise 6:25 AM AKDT (5/15)
Length of Visible Light 20h 50m
Length of Day
17h 59m
Full, 99% of the Moon is Illuminated
May 15
Full
May 21
Last Quarter
May 28
New
Jun 5
First Quarter
Jun 12
Full

Hourly Weather History & Observations

Time (AKDT) Temp. Dew Point Humidity Pressure Visibility Wind Dir Wind Speed Gust Speed Precip Events Conditions
12:55 AM 57.0 °F 19.0 °F 23% 30.43 in 10.0 mi WNW 3.5 mph - N/A   Clear
1:55 AM 58.6 °F 13.3 °F 17% 30.43 in 10.0 mi WNW 2.3 mph - N/A   Clear
2:55 AM 53.4 °F 16.2 °F 23% 30.43 in 10.0 mi Variable 1.2 mph - N/A   Clear
3:55 AM 56.7 °F 15.3 °F 20% 30.43 in 10.0 mi WNW 2.3 mph - N/A   Mostly Cloudy
4:55 AM 55.4 °F 15.1 °F 20% 30.42 in 10.0 mi WSW 3.5 mph - N/A   Mostly Cloudy
5:55 AM 48.6 °F 21.9 °F 35% 30.43 in 10.0 mi Variable 3.5 mph - N/A   Overcast
6:55 AM 49.6 °F 23.2 °F 35% 30.43 in 10.0 mi WNW 1.2 mph - N/A   Overcast
7:55 AM 50.7 °F 21.7 °F 32% 30.43 in 10.0 mi West 3.5 mph - N/A   Mostly Cloudy
8:55 AM 54.1 °F 19.8 °F 26% 30.43 in 10.0 mi SSW 3.5 mph - N/A   Mostly Cloudy
9:55 AM 55.6 °F 22.8 °F 28% 30.42 in 10.0 mi SW 3.5 mph - N/A   Clear
11:55 AM 63.5 °F 24.3 °F 22% 30.40 in 10.0 mi Variable 3.5 mph - N/A   Clear
12:55 PM 65.3 °F 22.8 °F 20% 30.39 in 10.0 mi Variable 5.8 mph - N/A   Clear
1:55 PM 66.2 °F 23.5 °F 20% 30.38 in 10.0 mi Variable 5.8 mph - N/A   Clear
2:55 PM 68.2 °F 23.4 °F 18% 30.36 in 10.0 mi WNW 9.2 mph 17.3 mph N/A   Clear
3:55 PM 68.9 °F 25.7 °F 20% 30.34 in 10.0 mi West 10.4 mph 17.3 mph N/A   Clear
4:55 PM 68.5 °F 26.4 °F 21% 30.33 in 10.0 mi West 10.4 mph 16.1 mph N/A   Clear
5:55 PM 67.8 °F 27.7 °F 22% 30.33 in 10.0 mi WNW 9.2 mph - N/A   Mostly Cloudy
6:55 PM 67.6 °F 28.2 °F 23% 30.33 in 10.0 mi WNW 5.8 mph - N/A   Mostly Cloudy
7:55 PM 67.6 °F 29.7 °F 24% 30.32 in 10.0 mi NNW 5.8 mph 13.8 mph N/A   Mostly Cloudy
8:55 PM 65.8 °F 30.2 °F 26% 30.32 in 10.0 mi NNW 6.9 mph - N/A   Mostly Cloudy
9:55 PM 63.3 °F 29.1 °F 28% 30.32 in 10.0 mi NW 5.8 mph - N/A   Clear
10:55 PM 60.3 °F 29.1 °F 31% 30.33 in 10.0 mi NNW 6.9 mph - N/A   Clear
11:55 PM 58.5 °F 29.1 °F 33% 30.33 in 10.0 mi WNW 2.3 mph - N/A   Mostly Cloudy